Location: ??????
(42.0089°N, 44.3281°E)
Time: 17:15:23
(UTC+00:00)

Okean 1-7 Rocket - Pass Details

Date: 01 June 2022
Orbit: 616 x 648 km, 82.5° (Epoch: 01 July)

Event Time Altitude Azimuth Distance (km) Brightness Sun altitude
Exits shadow 22:50:19 - 131° (SE) 2,241 6.3 -21.0°
Reaches altitude 10° 22:51:17 10° 121° (ESE) 1,984 6.1 -20.9°
Maximum altitude 22:53:52 16° 85° (E) 1,651 6.1 -20.7°
Drops below altitude 10° 22:56:27 10° 49° (NE) 1,987 7.2 -20.5°
Sets 22:59:27 0° 27° (NNE) 2,897 8.6 -20.2°
